Regional Weather Roundup
Issued by NWS

Home | Current Version | Previous Version | Text Only | Print | Product List | Glossary Off
Versions: 1 2 3 4 5 6 7 8 9 10 11 12 13 14 15 16 17 18 19 20 21 22 23 24 25 26 27 28 29 30 31 32 33 34 35 36 37 38 39 40 41 42 43 44 45 46 47 48 49 50

000
ASUS43 KOAX 161502
RWRNE

WEATHER ROUNDUP FOR NEBRASKA
NATIONAL WEATHER SERVICE OMAHA NE
1000 AM CDT MON OCT 16 2017

NOTES: SATELLITE DATA IS BEING USED TO AUGMENT CLOUD COVER ABOVE
       12000 FEET.
       "FAIR" INDICATES FEW OR NO CLOUDS BELOW 12,000 FEET WITH NO
       SIGNIFICANT WEATHER AND/OR OBSTRUCTIONS TO VISIBILITY.


NEZ001>004-019>022-054>056-161600-
NEBRASKA PANHANDLE

CITY           SKY/WX    TMP DP  RH WIND       PRES   REMARKS
SCOTTSBLUFF    CLOUDY    40  30  67 NW3       30.24S
ALLIANCE       CLOUDY    41  31  67 W5        30.22S
CHADRON        CLOUDY    43  29  57 W3        30.19S
GORDON         FAIR      48  31  52 W7        30.19R
KIMBALL        CLOUDY    51  27  39 W10       30.28S
SIDNEY         SUNNY     47  30  51 W7        30.26S
$$

NEZ057>060-069>072-079>082-161600-
SOUTHWEST NEBRASKA

CITY           SKY/WX    TMP DP  RH WIND       PRES   REMARKS
NORTH PLATTE   SUNNY     45  38  76 W3        30.26S
IMPERIAL       SUNNY     47  32  56 W9        30.27S
LEXINGTON      SUNNY     47  37  65 CALM      30.27F
MCCOOK         SUNNY     44  34  67 SW6       30.29S
OGALLALA       CLOUDY    42  34  74 W8        30.27R
$$

NEZ005>010-023>029-035>040-094-161600-
NORTH CENTRAL NEBRASKA

CITY           SKY/WX    TMP DP  RH WIND       PRES   REMARKS
VALENTINE      SUNNY     50  33  52 SW8       30.16F
AINSWORTH      SUNNY     52  32  46 SW12G17   30.18S
BROKEN BOW     SUNNY     51  37  58 SW5       30.24F
O`NEILL        SUNNY     51  38  60 S8        30.22F
ORD            SUNNY     45  36  70 CALM      30.24F
THEDFORD       SUNNY     53  31  43 SW5       30.22F
$$

NEZ041-046>049-061>064-073>077-083>087-161600-
SOUTH CENTRAL NEBRASKA

CITY           SKY/WX    TMP DP  RH WIND       PRES   REMARKS
GRAND ISLAND   SUNNY     54  38  54 S9        30.29F
AURORA         SUNNY     51  37  58 SW8       30.30S
HASTINGS       SUNNY     51  36  56 SW8       30.31S
HEBRON         SUNNY     53  40  61 SW7       30.35S
HOLDREGE       SUNNY     53  33  47 SW14      30.29S
KEARNEY        SUNNY     51  38  60 S13       30.29F
YORK           SUNNY     50  39  66 S9        30.31S
$$

NEZ011>018-030>034-042>045-161600-
NORTHEAST NEBRASKA

CITY           SKY/WX    TMP DP  RH WIND       PRES   REMARKS
NORFOLK        SUNNY     52  35  52 S17       30.26F
ALBION         SUNNY     49  39  70 SE5       30.27F
BLAIR          SUNNY     52  39  61 S9        30.32S
COLUMBUS       SUNNY     52  40  63 S8        30.30F
FREMONT        SUNNY     55  36  49 S9        30.31F
TEKAMAH        SUNNY     50  40  68 S6        30.31F
WAYNE          SUNNY     53  36  52 S12       30.27F
$$

NEZ050>053-065>068-078-088>093-161600-
SOUTHEAST NEBRASKA

CITY           SKY/WX    TMP DP  RH WIND       PRES   REMARKS
LINCOLN        SUNNY     49  41  74 S7        30.35S
OMAHA EPPLEY   SUNNY     50  40  68 S7        30.33F
BEATRICE       SUNNY     51  41  67 S6        30.35S
FALLS CITY     SUNNY     52  44  74 SE3       30.37S
NEBRASKA CITY  SUNNY     55  39  55 S12       30.35F
PLATTSMOUTH    SUNNY     55  38  52 S12       30.34S
$$

NEZ044-045-051>053-067-161600-
OMAHA AREA

CITY           SKY/WX    TMP DP  RH WIND       PRES   REMARKS
OMAHA EPPLEY   SUNNY     50  40  68 S7        30.33F
BLAIR          SUNNY     52  39  61 S9        30.32S
FREMONT        SUNNY     55  36  49 S9        30.31F
MILLARD        SUNNY     53  42  67 SE5       30.33F
OFFUTT AFB     SUNNY     48  42  78 SE3       30.33F
PLATTSMOUTH    SUNNY     55  38  52 S12       30.34S
WAHOO          FAIR      51  40  65 S5        30.32S
$$



USA.gov is the U.S. government's official web portal to all federal, state and local government web resources and services.